Volver al catálogo

FENGYUN 1C DEB

ActivoPO
NORAD 30815·DEBRIS·🇨🇳 China

Lanzado May 10, 1999 desde Taiyuan Satellite Launch Center

Loading…

Próximos Pases (próximas 24 horas)

TLE

ActualizadoSource: Space-Track

Época: Sep 12, 2026, 02:15 UTC

1 30815U 99025AUZ 26255.09430354  .00012822  00000-0  14434-2 0  9993
2 30815  99.2945  99.4708 0002678  53.7991  72.9427 14.86823439 17918

Sigue FENGYUN 1C DEB en tiempo real con AllMySat

Download on the App Store